Weather in Mikhaylovka

Russia / Amur Oblast     49°54′56″N   128°50′41″E
temp.,
°C
wind,
m/s
gust,
m/s
humid.,
%
clouds,
%
prec.,
mm/h
press.,
hPa
HPBL,
m
5 december, sun
sun500:00−14ssw511875 0.0 1017281
03:00−14s5119110 0.0 1016270
06:00−15s4109410 0.0 1015178
09:00−15sse511958 0.0 1015194
12:00−9sse51291100 0.0 1013416
15:00−8sse499380 0.0 1011285
18:00−11s3696100 0.0 101269
21:00−10s259789 0.0 101271
6 december, mon
mon600:00−16wnw2210095 0.1 101317
03:00−19nw3410066 0.1 101542
06:00−22nw2210057 0.0 101711
09:00−21wsw2210048 0.0 102027
12:00−11wnw37895 0.0 1020157
15:00−10wsw36915 0.0 102197
18:00−14wsw37865 0.0 102371
21:00−16sw359341 0.0 102453
7 december, tue
tue700:00−15ssw379586 0.0 102487
03:00−13ssw5118988 0.0 1023185
06:00−12ssw4108996 0.0 1023196
09:00−13s379297 0.0 1024110
12:00−8ssw358985 0.0 1024230
15:00−9s22955 0.0 102519
18:00−16s1110062 0.0 10279
21:00−18s2210084 0.0 102910
8 december, wed
wed800:00−20s2210078 0.0 10309
03:00−20sse2210087 0.0 103116
06:00−19sse3210079 0.0 103134
09:00−16sse369715 0.0 103171
12:00−9sse48915 0.0 1030183
15:00−7sse48935 0.0 1028183
18:00−10se48945 0.0 102797
21:00−9sse4993100 0.0 1026106
9 december, thu
thu900:00−7sse51187100 0.0 1024176
03:00−7se51285100 0.0 1022201
06:00−7se61386100 0.1 1019212
09:00−6se61384100 0.1 1017222
12:00−3s51388100 0.0 1016678
15:00−1ssw61497100 2.1 1014948
18:00−1sw51298100 2.2 1016801
21:00−2wnw599696 3.4 1018580